Location: �perlecques
(50.8057°N, 2.1521°E)
Time: 23:51:46
(UTC+00:00)

Vanguard 1 Rocket - Pass Details

Date: 01 August 2021
Orbit: 650 x 4226 km, 34.3° (Epoch: 28 September)

Event Time Altitude Azimuth Distance (km) Brightness Sun altitude
Rises 11:40:52 0° 247° (WSW) 7,416 12.2 56.9°
Reaches altitude 10° 11:47:10 10° 240° (WSW) 5,818 11.8 57.0°
Maximum altitude 12:00:14 33° 185° (S) 2,875 11.4 57.1°
Drops below altitude 10° 12:07:48 10° 125° (SE) 3,343 10.7 57.0°
Sets 12:10:21 0° 115° (ESE) 3,988 10.8 57.0°
